Location: Unspecified
(0.0000°N, 0.0000°E)
Time: 17:49:35
(UTC+00:00)

Tiangong - Pass Details

Date: 11 January 2026
Orbit: 378 x 394 km, 41.5° (Epoch: 16 January)

Event Time Altitude Azimuth Distance (km) Brightness Sun altitude
Rises 05:27:15 0° 219° (SW) 2,253 1.6 -9.4°
Reaches altitude 10° 05:29:21 10° 214° (SW) 1,401 0.6 -8.9°
Maximum altitude 05:32:27 53° 136° (SE) 476 -1.3 -8.2°
Drops below altitude 10° 05:35:33 10° 58° (ENE) 1,405 1.2 -7.5°
Sets 05:37:39 0° 53° (NE) 2,259 2.2 -7.0°
